| time (UTC) | temp F | wind direction | speed MPH | gust MPH | rain 1hr in | rain 24hr in | rain mn in | humidity % | barometer mb |
| 20260505024003 | 61 | 134 | 3.0 | 7.0 | 0.02 | 0.02 | 0.02 | 68 | 982.8 |
| 20260505023004 | 61 | 164 | 3.0 | 8.0 | 0.02 | 0.02 | 0.02 | 69 | 983.1 |
| 20260505022005 | 60 | 189 | 3.0 | 8.0 | 0.02 | 0.02 | 0.02 | 70 | 982.8 |
| 20260505021004 | 59 | 138 | 4.0 | 9.0 | 0.02 | 0.02 | 0.02 | 67 | 982.6 |
| 20260505020005 | 59 | 16 | 2.0 | 3.0 | 0.01 | 0.01 | 0.01 | 66 | 983.1 |
| 20260505015005 | 59 | 299 | 1.0 | 3.0 | 0.00 | 0.00 | 0.00 | 56 | 982.7 |
| 20260505014004 | 59 | 259 | 1.0 | 3.0 | 0.00 | 0.00 | 0.00 | 55 | 982.7 |
| 20260505013005 | 60 | 270 | 1.0 | 5.0 | 0.00 | 0.00 | 0.00 | 55 | 982.8 |
| 20260505012004 | 61 | 295 | 1.0 | 3.0 | 0.00 | 0.00 | 0.00 | 54 | 982.8 |
| 20260505011007 | 61 | 255 | 1.0 | 3.0 | 0.00 | 0.00 | 0.00 | 53 | 982.9 |
| 20260505010004 | 62 | 230 | 1.0 | 5.0 | 0.00 | 0.00 | 0.00 | 51 | 982.8 |
| 20260505005004 | 63 | 331 | 1.0 | 5.0 | 0.00 | 0.00 | 0.00 | 48 | 982.7 |
| 20260505004004 | 65 | 146 | 2.0 | 5.0 | 0.00 | 0.00 | 0.00 | 43 | 982.6 |
| 20260505003004 | 66 | 262 | 1.0 | 7.0 | 0.00 | 0.00 | 0.00 | 41 | 982.7 |
| 20260505001005 | 67 | 209 | 2.0 | 8.0 | 0.00 | 0.00 | 0.00 | 39 | 982.6 |
| 20260505000005 | 68 | 244 | 3.0 | 8.0 | 0.00 | 0.00 | 0.00 | 38 | 982.7 |
| 20260504235004 | 69 | 183 | 3.0 | 9.0 | 0.00 | 0.00 | 0.00 | 38 | 982.7 |
| 20260504234004 | 69 | 139 | 6.0 | 12.0 | 0.00 | 0.00 | 0.00 | 36 | 982.7 |
| 20260504233004 | 70 | 227 | 2.0 | 10.0 | 0.00 | 0.00 | 0.00 | 36 | 982.8 |
| 20260504231005 | 71 | 194 | 4.0 | 12.0 | 0.00 | 0.00 | 0.00 | 37 | 982.9 |
| 20260504230005 | 71 | 212 | 5.0 | 9.0 | 0.00 | 0.00 | 0.00 | 40 | 983.0 |
| 20260504225004 | 70 | 180 | 4.0 | 12.0 | 0.00 | 0.00 | 0.00 | 41 | 983.0 |
| 20260504224004 | 70 | 193 | 6.0 | 13.0 | 0.00 | 0.00 | 0.00 | 40 | 983.0 |
| 20260504223004 | 70 | 185 | 5.0 | 12.0 | 0.00 | 0.00 | 0.00 | 40 | 983.0 |
| 20260504222005 | 70 | 230 | 3.0 | 12.0 | 0.00 | 0.00 | 0.00 | 40 | 982.9 |
| 20260504221005 | 71 | 117 | 6.0 | 14.0 | 0.00 | 0.00 | 0.00 | 39 | 983.1 |
| 20260504220005 | 71 | 157 | 6.0 | 15.0 | 0.00 | 0.00 | 0.00 | 35 | 982.9 |
| 20260504215004 | 71 | 223 | 7.0 | 21.0 | 0.00 | 0.00 | 0.00 | 34 | 983.0 |
| 20260504214004 | 72 | 195 | 8.0 | 17.0 | 0.00 | 0.00 | 0.00 | 33 | 982.9 |
| 20260504213005 | 72 | 183 | 5.0 | 15.0 | 0.00 | 0.00 | 0.00 | 34 | 982.8 |
| 20260504212004 | 72 | 179 | 6.0 | 16.0 | 0.00 | 0.00 | 0.00 | 35 | 982.7 |
| 20260504211004 | 72 | 167 | 7.0 | 17.0 | 0.00 | 0.00 | 0.00 | 36 | 982.9 |
| 20260504210004 | 71 | 178 | 7.0 | 17.0 | 0.00 | 0.00 | 0.00 | 38 | 983.0 |
| 20260504205004 | 71 | 203 | 5.0 | 17.0 | 0.00 | 0.00 | 0.00 | 39 | 983.2 |
| 20260504204003 | 71 | 175 | 5.0 | 21.0 | 0.00 | 0.00 | 0.00 | 41 | 983.5 |
| 20260504203004 | 70 | 169 | 5.0 | 21.0 | 0.00 | 0.00 | 0.00 | 42 | 983.6 |
| 20260504202005 | 71 | 166 | 7.0 | 21.0 | 0.00 | 0.00 | 0.00 | 41 | 983.5 |
| 20260504201004 | 71 | 171 | 5.0 | 13.0 | 0.00 | 0.00 | 0.00 | 41 | 983.5 |
| 20260504200004 | 71 | 123 | 5.0 | 12.0 | 0.00 | 0.00 | 0.00 | 41 | 983.6 |
| 20260504195004 | 71 | 165 | 6.0 | 15.0 | 0.00 | 0.00 | 0.00 | 41 | 983.8 |
| 20260504193004 | 71 | 185 | 8.0 | 16.0 | 0.00 | 0.00 | 0.00 | 40 | 984.1 |
| 20260504191004 | 71 | 162 | 7.0 | 15.0 | 0.00 | 0.00 | 0.00 | 41 | 984.5 |
| 20260504190004 | 71 | 208 | 8.0 | 17.0 | 0.00 | 0.00 | 0.00 | 41 | 984.5 |
| 20260504185004 | 70 | 177 | 9.0 | 17.0 | 0.00 | 0.00 | 0.00 | 41 | 984.5 |
| 20260504184005 | 69 | 146 | 5.0 | 21.0 | 0.00 | 0.00 | 0.00 | 43 | 984.7 |
| 20260504183004 | 69 | 184 | 10.0 | 17.0 | 0.00 | 0.00 | 0.00 | 43 | 985.0 |
| 20260504181004 | 70 | 140 | 3.0 | 16.0 | 0.00 | 0.00 | 0.00 | 45 | 984.9 |
| 20260504180004 | 69 | 189 | 4.0 | 14.0 | 0.00 | 0.00 | 0.00 | 46 | 985.2 |
| 20260504175004 | 67 | 180 | 6.0 | 18.0 | 0.00 | 0.00 | 0.00 | 47 | 985.6 |
| 20260504174004 | 67 | 182 | 10.0 | 18.0 | 0.00 | 0.00 | 0.00 | 47 | 985.7 |
| 20260504171005 | 66 | 179 | 7.0 | 21.0 | 0.00 | 0.00 | 0.00 | 48 | 985.6 |
| 20260504151004 | 61 | 196 | 9.0 | 17.0 | 0.00 | 0.00 | 0.00 | 51 | 986.6 |
| 20260504141004 | 59 | 131 | 7.0 | 17.0 | 0.00 | 0.00 | 0.00 | 54 | 986.6 |
| 20260504082004 | 50 | 141 | 4.0 | 8.0 | 0.00 | 0.00 | 0.00 | 65 | 987.5 |
| 20260504081005 | 50 | 193 | 3.0 | 7.0 | 0.00 | 0.00 | 0.00 | 68 | 987.5 |
| 20260504043006 | 51 | 195 | 7.0 | 13.0 | 0.00 | 0.00 | 0.00 | 63 | 989.2 |
| 20260504042005 | 51 | 206 | 7.0 | 14.0 | 0.00 | 0.00 | 0.00 | 61 | 989.0 |
| 20260504040004 | 52 | 220 | 4.0 | 13.0 | 0.00 | 0.00 | 0.00 | 58 | 989.0 |
| 20260504035004 | 52 | 189 | 5.0 | 12.0 | 0.00 | 0.00 | 0.00 | 57 | 989.0 |
| 20260504034005 | 52 | 183 | 6.0 | 15.0 | 0.00 | 0.00 | 0.00 | 57 | 988.7 |
| 20260504031005 | 54 | 179 | 6.0 | 17.0 | 0.00 | 0.00 | 0.00 | 53 | 989.0 |
| 20260504030006 | 55 | 153 | 6.0 | 15.0 | 0.00 | 0.00 | 0.00 | 51 | 989.3 |